Mason City, IA

5:18 PM CDT on July 24, 2017 (GMT -0500)
Mason City Municipal

Weather History for KMCW - July, 2014

Change the Weather History Date:

Sunday, July 20, 2014

  Actual Average Record
Temperature  
Mean Temperature 76 °F 72 °F  
Max Temperature 84 °F 83 °F 104 °F (1930)
Min Temperature 68 °F 61 °F 45 °F (1970)
Degree Days  
Heating Degree Days 0 0  
Month to date heating degree days 21 0  
Since 1 June heating degree days 34 44  
Since 1 July heating degree days 21 0  
Cooling Degree Days 11 7  
Month to date cooling degree days 68 142  
Year to date cooling degree days 257 315  
Since 1 June cooling degree days 204 280  
Growing Degree Days 26 (Base 50)    
Moisture  
Dew Point 65 °F    
Average Humidity 71    
Maximum Humidity 87    
Minimum Humidity 55    
Precipitation  
Precipitation 0.00 in 0.15 in 2.04 in (1912)
Month to date precipitation 0.40 3.05  
Year to date precipitation 23.08 20.67  
Snow  
Snow 0.00 in 0.00 in 0.00 in (2002)
Month to date snowfall 0.0 0.0  
Since 1 June snowfall 0.0 0.0  
Since 1 July snowfall 0.0 0.0  
Snow Depth 0.00 in    
Sea Level Pressure  
Sea Level Pressure 29.91 in    
Wind  
Wind Speed 12 mph (South)    
Max Wind Speed 24 mph    
Max Gust Speed 29 mph    
Visibility 10 miles    
Events      
T = Trace of Precipitation, MM = Missing Value Source: NWS Daily Summary

Daily Weather History Graph

Daily Weather History Graph

Search for Another Location

Airport or City:

Trip Planner

Search our weather history database for the weather conditions in past years. The results will help you decide how hot, cold, wet, or windy it might be!

Date:

Astronomy

Jul. 20, 2014 Rise Set
Actual Time 5:51 AM CDT 8:47 PM CDT
Civil Twilight 5:18 AM CDT 9:20 PM CDT
Nautical Twilight 4:35 AM CDT 10:03 PM CDT
Astronomical Twilight 3:44 AM CDT 10:53 PM CDT
Moon 1:07 AM CDT (7/20) 3:28 PM CDT (7/20)
Length of Visible Light 16h 02m
Length of Day
14h 55m
Waning Crescent, 33% of the Moon is Illuminated
Jul 20
Waning Crescent
Jul 26
New
Aug 3
First Quarter
Aug 10
Full
Aug 17
Last Quarter

Hourly Weather History & Observations

Time (CDT) Temp. Heat Index Dew Point Humidity Pressure Visibility Wind Dir Wind Speed Gust Speed Precip Events Conditions
12:53 AM 68.0 °F - 64.0 °F 87% 29.93 in 10.0 mi South 9.2 mph - N/A   Overcast
1:53 AM 68.0 °F - 64.0 °F 87% 29.92 in 10.0 mi South 9.2 mph - N/A   Overcast
2:53 AM 68.0 °F - 64.0 °F 87% 29.92 in 10.0 mi South 6.9 mph - N/A   Overcast
3:53 AM 68.0 °F - 64.0 °F 87% 29.91 in 10.0 mi South 8.1 mph - N/A   Overcast
4:53 AM 68.0 °F - 64.0 °F 87% 29.92 in 10.0 mi South 6.9 mph - N/A   Overcast
5:53 AM 69.1 °F - 63.0 °F 81% 29.94 in 10.0 mi South 8.1 mph - N/A   Overcast
6:53 AM 68.0 °F - 63.0 °F 84% 29.94 in 10.0 mi South 8.1 mph - N/A   Overcast
7:53 AM 70.0 °F - 63.0 °F 78% 29.95 in 10.0 mi South 10.4 mph - N/A   Overcast
8:53 AM 72.0 °F - 63.0 °F 73% 29.95 in 10.0 mi South 10.4 mph - N/A   Overcast
9:53 AM 75.9 °F - 64.0 °F 67% 29.94 in 10.0 mi South 15.0 mph - N/A   Mostly Cloudy
10:53 AM 78.1 °F - 64.0 °F 62% 29.92 in 10.0 mi South 17.3 mph 24.2 mph N/A   Clear
11:53 AM 79.0 °F - 64.0 °F 60% 29.91 in 10.0 mi South 16.1 mph 26.5 mph N/A   Clear
12:53 PM 82.0 °F 83.8 °F 64.9 °F 56% 29.89 in 10.0 mi South 18.4 mph 26.5 mph N/A   Clear
1:53 PM 82.9 °F 84.4 °F 64.0 °F 53% 29.89 in 10.0 mi South 18.4 mph - N/A   Clear
2:53 PM 84.0 °F 86.3 °F 66.0 °F 55% 29.88 in 10.0 mi South 17.3 mph 25.3 mph N/A   Clear
3:53 PM 82.9 °F 84.6 °F 64.9 °F 54% 29.88 in 10.0 mi South 16.1 mph - N/A   Clear
4:53 PM 82.9 °F 85.0 °F 66.0 °F 56% 29.86 in 10.0 mi South 16.1 mph 26.5 mph N/A   Clear
5:53 PM 82.0 °F 84.5 °F 66.9 °F 60% 29.85 in 10.0 mi SSE 18.4 mph 23.0 mph N/A   Clear
6:53 PM 80.1 °F 82.1 °F 66.0 °F 62% 29.86 in 10.0 mi South 15.0 mph 24.2 mph N/A   Clear
7:53 PM 78.1 °F - 66.0 °F 66% 29.87 in 10.0 mi South 12.7 mph - N/A   Clear
8:53 PM 73.9 °F - 66.0 °F 76% 29.88 in 10.0 mi South 9.2 mph - N/A   Clear
9:53 PM 73.0 °F - 66.0 °F 79% 29.91 in 10.0 mi SSE 9.2 mph - N/A   Mostly Cloudy
10:53 PM 73.9 °F - 66.0 °F 76% 29.91 in 10.0 mi SSE 10.4 mph - N/A   Overcast
11:53 PM 73.0 °F - 66.0 °F 79% 29.91 in 10.0 mi South 11.5 mph - N/A   Overcast